2023/02/02 00:00:00,134.8,-0.9
2023/02/02 00:10:00,134.8,-0.9
2023/02/02 00:20:00,134.8,-1.2
2023/02/02 00:30:00,134.7,-1.1
2023/02/02 00:40:00,134.7,-1.2
2023/02/02 00:50:00,134.9,-1.2
2023/02/02 01:00:00,135.1,-1.4
2023/02/02 01:10:00,135.3,-1.2
2023/02/02 01:20:00,135.4,-1.2
2023/02/02 01:30:00,135.3,-1.2
2023/02/02 01:40:00,135.4,-1.5
2023/02/02 01:50:00,135.3,-1.2
2023/02/02 02:00:00,135.2,-1.5
2023/02/02 02:10:00,135.3,-1.5
2023/02/02 02:20:00,135.8,-1.7
2023/02/02 02:30:00,136.0,-1.7
2023/02/02 02:40:00,135.9,-1.9
2023/02/02 02:50:00,135.8,-1.6
2023/02/02 03:00:00,135.8,-1.9
2023/02/02 03:10:00,135.9,-1.9
2023/02/02 03:20:00,136.3,-1.7
2023/02/02 03:30:00,136.5,-2.0
2023/02/02 03:40:00,136.5,-2.2
2023/02/02 03:50:00,136.4,-2.2
2023/02/02 04:00:00,136.6,-2.2
2023/02/02 04:10:00,136.6,-2.3
2023/02/02 04:20:00,136.6,-2.3
2023/02/02 04:30:00,136.5,-2.3
2023/02/02 04:40:00,136.6,-2.2
2023/02/02 04:50:00,136.5,-2.4
2023/02/02 05:00:00,136.4,-2.4
2023/02/02 05:10:00,136.5,-2.6
2023/02/02 05:20:00,136.5,-2.8
2023/02/02 05:30:00,136.3,-2.7
2023/02/02 05:40:00,136.3,-2.7
2023/02/02 05:50:00,136.3,-2.5
2023/02/02 06:00:00,136.1,-2.7
2023/02/02 06:10:00,136.1,-3.0
2023/02/02 06:20:00,136.1,-2.6
2023/02/02 06:30:00,136.1,-2.7
2023/02/02 06:40:00,136.0,-2.8
2023/02/02 06:50:00,136.0,-2.7
2023/02/02 07:00:00,135.8,-2.3
2023/02/02 07:10:00,135.8,-2.7
2023/02/02 07:20:00,135.8,-2.5
2023/02/02 07:30:00,135.7,-2.4
2023/02/02 07:40:00,135.7,-2.3
2023/02/02 07:50:00,135.6,-2.4
2023/02/02 08:00:00,135.8,-2.3
2023/02/02 08:10:00,135.6,-2.0
2023/02/02 08:20:00,135.6,-2.1
2023/02/02 08:30:00,135.6,-2.3
2023/02/02 08:40:00,135.4,-1.8
2023/02/02 08:50:00,135.4,-1.1
2023/02/02 09:00:00,135.3,-0.6
2023/02/02 09:10:00,135.2,-1.0
2023/02/02 09:20:00,134.9,-0.7
2023/02/02 09:30:00,134.8,-1.2
2023/02/02 09:40:00,134.8,-0.4
2023/02/02 09:50:00,134.7,-0.1
2023/02/02 10:00:00,134.5, 0.8
2023/02/02 10:10:00,134.4, 1.4
2023/02/02 10:20:00,134.3, 1.4
2023/02/02 10:30:00,134.2, 0.2
2023/02/02 10:40:00,133.9, 1.0
2023/02/02 10:50:00,133.9, 0.7
2023/02/02 11:00:00,133.8, 1.3
2023/02/02 11:10:00,133.7, 2.7
2023/02/02 11:20:00,133.5, 3.5
2023/02/02 11:30:00,133.5, 1.8
2023/02/02 11:40:00,133.3,-0.7
2023/02/02 11:50:00,133.1,-0.8
2023/02/02 12:00:00,133.2,-0.4
2023/02/02 12:10:00,133.1,-0.3
2023/02/02 12:20:00,133.0,-0.1
2023/02/02 12:30:00,133.0,-0.3
2023/02/02 12:40:00,133.0,-0.5
2023/02/02 12:50:00,132.9,-0.7
2023/02/02 13:00:00,132.8,-0.6
2023/02/02 13:10:00,132.7, 1.8
2023/02/02 13:20:00,132.5, 3.5
2023/02/02 13:30:00,132.4, 3.3
2023/02/02 13:40:00,132.4, 1.2
2023/02/02 13:50:00,132.4,-0.4
2023/02/02 14:00:00,132.4,-0.7
2023/02/02 14:10:00,132.3,-1.1
2023/02/02 14:20:00,132.2,-0.7
2023/02/02 14:30:00,132.1, 0.3
2023/02/02 14:40:00,132.0, 1.3
2023/02/02 14:50:00,131.9, 3.7
2023/02/02 15:00:00,131.9, 1.9
2023/02/02 15:10:00,131.8, 0.3
2023/02/02 15:20:00,131.7,-0.7
2023/02/02 15:30:00,131.6,-0.5
2023/02/02 15:40:00,131.5, 0.2
2023/02/02 15:50:00,131.4,-0.4
2023/02/02 16:00:00,131.4,-0.6
2023/02/02 16:10:00,131.4,-1.2
2023/02/02 16:20:00,131.3,-1.7
2023/02/02 16:30:00,131.2,-1.2
2023/02/02 16:40:00,131.1,-1.2
2023/02/02 16:50:00,131.0,-1.8
2023/02/02 17:00:00,131.0,-2.0
2023/02/02 17:10:00,131.0,-2.0
2023/02/02 17:20:00,130.9,-2.0
2023/02/02 17:30:00,130.9,-2.1
2023/02/02 17:40:00,130.8,-2.3
2023/02/02 17:50:00,130.6,-2.2
2023/02/02 18:00:00,130.6,-2.4
2023/02/02 18:10:00,130.5,-2.4
2023/02/02 18:20:00,130.4,-2.3
2023/02/02 18:30:00,130.3,-2.8
2023/02/02 18:40:00,130.3,-2.4
2023/02/02 18:50:00,130.3,-2.6
2023/02/02 19:00:00,130.3,-2.8
2023/02/02 19:10:00,130.2,-2.6
2023/02/02 19:20:00,130.1,-2.5
2023/02/02 19:30:00,130.1,-2.4
2023/02/02 19:40:00,130.0,-2.2
2023/02/02 19:50:00,129.8,-2.4
2023/02/02 20:00:00,129.8,-2.2
2023/02/02 20:10:00,129.7,-2.8
2023/02/02 20:20:00,129.7,-3.2
2023/02/02 20:30:00,129.6,-2.9
2023/02/02 20:40:00,129.6,-2.8
2023/02/02 20:50:00,129.5,-2.4
2023/02/02 21:00:00,129.5,-2.9
2023/02/02 21:10:00,129.4,-2.5
2023/02/02 21:20:00,129.4,-2.9
2023/02/02 21:30:00,129.4,-2.6
2023/02/02 21:40:00,129.3,-2.6
2023/02/02 21:50:00,129.3,-2.7
2023/02/02 22:00:00,129.3,-2.8
2023/02/02 22:10:00,129.2,-2.5
2023/02/02 22:20:00,129.2,-2.6
2023/02/02 22:30:00,129.1,-2.7
2023/02/02 22:40:00,129.0,-2.5
2023/02/02 22:50:00,129.0,-2.6
2023/02/02 23:00:00,128.9,-2.4
2023/02/02 23:10:00,128.9,-2.6
2023/02/02 23:20:00,128.8,-2.7
2023/02/02 23:30:00,128.7,-2.5
2023/02/02 23:40:00,128.7,-2.6
2023/02/02 23:50:00,128.6,-2.5
